Year,Month,Day,Hour,Minute,Value (Times are PST for temperature in C)
2015,02,28,00,00,3.20
2015,02,28,00,01,3.20
2015,02,28,00,02,3.20
2015,02,28,00,03,3.20
2015,02,28,00,04,3.20
2015,02,28,00,05,3.30
2015,02,28,00,06,3.30
2015,02,28,00,07,3.30
2015,02,28,00,08,3.30
2015,02,28,00,09,3.30
2015,02,28,00,10,3.30
2015,02,28,00,11,3.30
2015,02,28,00,12,3.40
2015,02,28,00,13,3.40
2015,02,28,00,15,3.40
2015,02,28,00,16,3.50
2015,02,28,00,17,3.40
2015,02,28,00,18,3.40
2015,02,28,00,19,3.40
2015,02,28,00,20,3.40
2015,02,28,00,21,3.40
2015,02,28,00,22,3.40
2015,02,28,00,23,3.40
2015,02,28,00,24,3.30
2015,02,28,00,25,3.30
2015,02,28,00,26,3.30
2015,02,28,00,27,3.30
2015,02,28,00,28,3.20
2015,02,28,00,29,3.20
2015,02,28,00,30,3.20
2015,02,28,00,31,3.20
2015,02,28,00,32,3.20
2015,02,28,00,33,3.20
2015,02,28,00,34,3.10
2015,02,28,00,35,3.10
2015,02,28,00,36,3.10
2015,02,28,00,37,3.00
2015,02,28,00,38,2.90
2015,02,28,00,39,2.90
2015,02,28,00,40,2.90
2015,02,28,00,41,2.80
2015,02,28,00,42,2.80
2015,02,28,00,43,2.80
2015,02,28,00,44,2.70
2015,02,28,00,45,2.70
2015,02,28,00,47,2.70
2015,02,28,00,48,2.70
2015,02,28,00,49,2.70
2015,02,28,00,50,2.70
2015,02,28,00,51,2.70
2015,02,28,00,52,2.70
2015,02,28,00,53,2.70
2015,02,28,00,54,2.80
2015,02,28,00,55,2.80
2015,02,28,00,56,2.80
2015,02,28,00,57,2.80
2015,02,28,00,58,2.70
2015,02,28,01,00,2.70
2015,02,28,01,01,2.70
2015,02,28,01,03,2.60
2015,02,28,01,05,2.50
2015,02,28,01,06,2.50
2015,02,28,01,07,2.40
2015,02,28,01,08,2.40
2015,02,28,01,09,2.40
2015,02,28,01,10,2.30
2015,02,28,01,11,2.30
2015,02,28,01,12,2.30
2015,02,28,01,13,2.30
2015,02,28,01,14,2.30
2015,02,28,01,15,2.30
2015,02,28,01,17,2.30
2015,02,28,01,18,2.30
2015,02,28,01,19,2.30
2015,02,28,01,20,2.30
2015,02,28,01,21,2.30
2015,02,28,01,22,2.30
2015,02,28,01,23,2.30
2015,02,28,01,24,2.30
2015,02,28,01,25,2.30
2015,02,28,01,26,2.30
2015,02,28,01,27,2.40
2015,02,28,01,28,2.40
2015,02,28,01,29,2.40
2015,02,28,01,30,2.40
2015,02,28,01,31,2.40
2015,02,28,01,32,2.40
2015,02,28,01,33,2.40
2015,02,28,01,34,2.40
2015,02,28,01,35,2.30
2015,02,28,01,36,2.30
2015,02,28,01,37,2.30
2015,02,28,01,38,2.30
2015,02,28,01,39,2.30
2015,02,28,01,40,2.20
2015,02,28,01,42,2.20
2015,02,28,01,43,2.20
2015,02,28,01,44,2.20
2015,02,28,01,45,2.10
2015,02,28,01,46,2.10
2015,02,28,01,47,2.10
2015,02,28,01,48,2.00
2015,02,28,01,49,2.00
2015,02,28,01,51,2.00
2015,02,28,01,52,1.90
2015,02,28,01,53,1.90
2015,02,28,01,54,1.90
2015,02,28,01,55,1.80
2015,02,28,01,56,1.80
2015,02,28,01,57,1.80
2015,02,28,01,58,1.80
2015,02,28,01,59,1.80
2015,02,28,02,00,1.80
2015,02,28,02,01,1.70
2015,02,28,02,02,1.70
2015,02,28,02,03,1.70
2015,02,28,02,04,1.70
2015,02,28,02,05,1.60
2015,02,28,02,06,1.60
2015,02,28,02,07,1.60
2015,02,28,02,08,1.60
2015,02,28,02,09,1.50
2015,02,28,02,10,1.50
2015,02,28,02,11,1.40
2015,02,28,02,12,1.40
2015,02,28,02,13,1.40
2015,02,28,02,14,1.40
2015,02,28,02,15,1.40
2015,02,28,02,16,1.40
2015,02,28,02,17,1.30
2015,02,28,02,18,1.30
2015,02,28,02,19,1.30
2015,02,28,02,21,1.30
2015,02,28,02,22,1.30
2015,02,28,02,23,1.30
2015,02,28,02,24,1.30
2015,02,28,02,25,1.30
2015,02,28,02,26,1.30
2015,02,28,02,27,1.30
2015,02,28,02,28,1.30
2015,02,28,02,29,1.20
2015,02,28,02,30,1.20
2015,02,28,02,31,1.20
2015,02,28,02,32,1.20
2015,02,28,02,33,1.20
2015,02,28,02,34,1.10
2015,02,28,02,35,1.10
2015,02,28,02,36,1.10
2015,02,28,02,37,1.00
2015,02,28,02,38,1.00
2015,02,28,02,39,0.90
2015,02,28,02,40,0.90
2015,02,28,02,41,0.80
2015,02,28,02,42,0.80
2015,02,28,02,43,0.80
2015,02,28,02,45,0.70
2015,02,28,02,46,0.70
2015,02,28,02,47,0.70
2015,02,28,02,49,0.60
2015,02,28,02,50,0.60
2015,02,28,02,51,0.60
2015,02,28,02,52,0.50
2015,02,28,02,53,0.50
2015,02,28,02,54,0.50
2015,02,28,02,55,0.40
2015,02,28,02,56,0.40
2015,02,28,02,57,0.40
2015,02,28,02,58,0.40
2015,02,28,02,59,0.40
2015,02,28,03,00,0.40
2015,02,28,03,01,0.30
2015,02,28,03,02,0.30
2015,02,28,03,03,0.30
2015,02,28,03,04,0.30
2015,02,28,03,05,0.30
2015,02,28,03,06,0.30
2015,02,28,03,07,0.30
2015,02,28,03,08,0.30
2015,02,28,03,09,0.30
2015,02,28,03,10,0.30
2015,02,28,03,11,0.30
2015,02,28,03,12,0.40
2015,02,28,03,13,0.40
2015,02,28,03,14,0.40
2015,02,28,03,15,0.40
2015,02,28,03,16,0.40
2015,02,28,03,17,0.40
2015,02,28,03,18,0.40
2015,02,28,03,19,0.40
2015,02,28,03,20,0.50
2015,02,28,03,21,0.50
2015,02,28,03,22,0.50
2015,02,28,03,23,0.50
2015,02,28,03,25,0.50
2015,02,28,03,26,0.40
2015,02,28,03,27,0.40
2015,02,28,03,28,0.40
2015,02,28,03,29,0.40
2015,02,28,03,30,0.40
2015,02,28,03,31,0.30
2015,02,28,03,32,0.30
2015,02,28,03,33,0.30
2015,02,28,03,34,0.30
2015,02,28,03,35,0.20
2015,02,28,03,36,0.20
2015,02,28,03,37,0.20
2015,02,28,03,38,0.20
2015,02,28,03,39,0.20
2015,02,28,03,40,0.10
2015,02,28,03,41,0.10
2015,02,28,03,42,0.10
2015,02,28,03,43,0.10
2015,02,28,03,44,0.10
2015,02,28,03,45,0.00
2015,02,28,03,46,0.00
2015,02,28,03,47,0.00
2015,02,28,03,48,0.00
2015,02,28,03,49,0.00
2015,02,28,03,50,0.00
2015,02,28,03,51,-0.10
2015,02,28,03,52,-0.10
2015,02,28,03,53,-0.10
2015,02,28,03,54,-0.10
2015,02,28,03,55,-0.10
2015,02,28,03,56,-0.10
2015,02,28,03,58,-0.10
2015,02,28,03,59,-0.10
2015,02,28,04,00,-0.10
2015,02,28,04,01,-0.10
2015,02,28,04,02,-0.10
2015,02,28,04,03,-0.10
2015,02,28,04,04,-0.20
2015,02,28,04,05,-0.20
2015,02,28,04,06,-0.20
2015,02,28,04,07,-0.20
2015,02,28,04,08,-0.20
2015,02,28,04,09,-0.20
2015,02,28,04,10,-0.20
2015,02,28,04,11,-0.20
2015,02,28,04,12,-0.20
2015,02,28,04,13,-0.20
2015,02,28,04,14,-0.20
2015,02,28,04,15,-0.20
2015,02,28,04,16,-0.20
2015,02,28,04,17,-0.20
2015,02,28,04,18,-0.30
2015,02,28,04,19,-0.30
2015,02,28,04,20,-0.30
2015,02,28,04,21,-0.30
2015,02,28,04,22,-0.20
2015,02,28,04,23,-0.20
2015,02,28,04,24,-0.30
2015,02,28,04,25,-0.30
2015,02,28,04,26,-0.30
2015,02,28,04,27,-0.30
2015,02,28,04,28,-0.30
2015,02,28,04,29,-0.30
2015,02,28,04,30,-0.30
2015,02,28,04,31,-0.40
2015,02,28,04,32,-0.40
2015,02,28,04,33,-0.40
2015,02,28,04,34,-0.40
2015,02,28,04,35,-0.40
2015,02,28,04,36,-0.50
2015,02,28,04,37,-0.50
2015,02,28,04,38,-0.60
2015,02,28,04,39,-0.60
2015,02,28,04,40,-0.60
2015,02,28,04,41,-0.60
2015,02,28,04,42,-0.60
2015,02,28,04,43,-0.60
2015,02,28,04,44,-0.70
2015,02,28,04,45,-0.70
2015,02,28,04,47,-0.70
2015,02,28,04,48,-0.70
2015,02,28,04,49,-0.70
2015,02,28,04,50,-0.70
2015,02,28,04,51,-0.70
2015,02,28,04,52,-0.70
2015,02,28,04,53,-0.70
2015,02,28,04,54,-0.70
2015,02,28,04,55,-0.70
2015,02,28,04,56,-0.70
2015,02,28,04,57,-0.80
2015,02,28,04,58,-0.80
2015,02,28,04,59,-0.80
2015,02,28,05,00,-0.80
2015,02,28,05,01,-0.80
2015,02,28,05,02,-0.80
2015,02,28,05,03,-0.80
2015,02,28,05,04,-0.80
2015,02,28,05,05,-0.80
2015,02,28,05,06,-0.90
2015,02,28,05,07,-0.90
2015,02,28,05,08,-0.90
2015,02,28,05,09,-0.90
2015,02,28,05,10,-0.90
2015,02,28,05,11,-0.90
2015,02,28,05,12,-0.90
2015,02,28,05,13,-0.90
2015,02,28,05,14,-0.90
2015,02,28,05,15,-0.90
2015,02,28,05,16,-0.90
2015,02,28,05,17,-0.90
2015,02,28,05,18,-0.90
2015,02,28,05,19,-0.90
2015,02,28,05,20,-0.90
2015,02,28,05,21,-0.90
2015,02,28,05,22,-1.00
2015,02,28,05,23,-1.00
2015,02,28,05,24,-1.10
2015,02,28,05,25,-1.10
2015,02,28,05,26,-1.10
2015,02,28,05,27,-1.10
2015,02,28,05,28,-1.10
2015,02,28,05,29,-1.10
2015,02,28,05,30,-1.10
2015,02,28,05,31,-1.10
2015,02,28,05,32,-1.10
2015,02,28,05,33,-1.10
2015,02,28,05,34,-1.10
2015,02,28,05,35,-1.10
2015,02,28,05,36,-1.20
2015,02,28,05,37,-1.20
2015,02,28,05,38,-1.20
2015,02,28,05,39,-1.20
2015,02,28,05,40,-1.20
2015,02,28,05,41,-1.20
2015,02,28,05,42,-1.10
2015,02,28,05,43,-1.10
2015,02,28,05,44,-1.10
2015,02,28,05,45,-1.00
2015,02,28,05,46,-0.90
2015,02,28,05,47,-0.90
2015,02,28,05,48,-0.90
2015,02,28,05,49,-0.90
2015,02,28,05,50,-0.90
2015,02,28,05,51,-0.90
2015,02,28,05,52,-0.80
2015,02,28,05,53,-0.80
2015,02,28,05,54,-0.80
2015,02,28,05,55,-0.80
2015,02,28,05,56,-0.80
2015,02,28,05,57,-0.80
2015,02,28,05,58,-0.90
2015,02,28,05,59,-0.90
2015,02,28,06,00,-0.90
2015,02,28,06,01,-0.90
2015,02,28,06,02,-0.90
2015,02,28,06,03,-0.90
2015,02,28,06,04,-1.00
2015,02,28,06,05,-1.00
2015,02,28,06,06,-1.00
2015,02,28,06,07,-1.10
2015,02,28,06,08,-1.10
2015,02,28,06,09,-1.10
2015,02,28,06,10,-1.10
2015,02,28,06,11,-1.10
2015,02,28,06,12,-1.10
2015,02,28,06,13,-1.10
2015,02,28,06,14,-1.10
2015,02,28,06,15,-1.20
2015,02,28,06,16,-1.20
2015,02,28,06,17,-1.20
2015,02,28,06,18,-1.20
2015,02,28,06,19,-1.20
2015,02,28,06,20,-1.20
2015,02,28,06,21,-1.20
2015,02,28,06,22,-1.20
2015,02,28,06,23,-1.20
2015,02,28,06,24,-1.20
2015,02,28,06,25,-1.20
2015,02,28,06,26,-1.30
2015,02,28,06,27,-1.30
2015,02,28,06,28,-1.30
2015,02,28,06,29,-1.20
2015,02,28,06,30,-1.20
2015,02,28,06,31,-1.20
2015,02,28,06,32,-1.20
2015,02,28,06,33,-1.20
2015,02,28,06,35,-1.20
2015,02,28,06,36,-1.20
2015,02,28,06,37,-1.20
2015,02,28,06,38,-1.20
2015,02,28,06,39,-1.20
2015,02,28,06,40,-1.20
2015,02,28,06,41,-1.20
2015,02,28,06,42,-1.20
2015,02,28,06,43,-1.20
2015,02,28,06,44,-1.30
2015,02,28,06,45,-1.30
2015,02,28,06,46,-1.30
2015,02,28,06,47,-1.30
2015,02,28,06,48,-1.30
2015,02,28,06,49,-1.30
2015,02,28,06,50,-1.30
2015,02,28,06,51,-1.30
2015,02,28,06,52,-1.40
2015,02,28,06,53,-1.30
2015,02,28,06,54,-1.30
2015,02,28,06,55,-1.30
2015,02,28,06,56,-1.30
2015,02,28,06,57,-1.30
2015,02,28,06,58,-1.30
2015,02,28,07,00,-1.30
2015,02,28,07,01,-1.30
2015,02,28,07,02,-1.20
2015,02,28,07,03,-1.20
2015,02,28,07,04,-1.20
2015,02,28,07,05,-1.20
2015,02,28,07,06,-1.20
2015,02,28,07,07,-1.20
2015,02,28,07,08,-1.20
2015,02,28,07,09,-1.20
2015,02,28,07,10,-1.20
2015,02,28,07,11,-1.20
2015,02,28,07,12,-1.20
2015,02,28,07,13,-1.20
2015,02,28,07,14,-1.20
2015,02,28,07,15,-1.20
2015,02,28,07,16,-1.20
2015,02,28,07,17,-1.20
2015,02,28,07,18,-1.20
2015,02,28,07,19,-1.20
2015,02,28,07,20,-1.20
2015,02,28,07,21,-1.20
2015,02,28,07,22,-1.20
2015,02,28,07,23,-1.20
2015,02,28,07,24,-1.20
2015,02,28,07,25,-1.20
2015,02,28,07,26,-1.20
2015,02,28,07,27,-1.30
2015,02,28,07,28,-1.30
2015,02,28,07,29,-1.30
2015,02,28,07,30,-1.30
2015,02,28,07,31,-1.40
2015,02,28,07,32,-1.40
2015,02,28,07,33,-1.40
2015,02,28,07,34,-1.40
2015,02,28,07,35,-1.40
2015,02,28,07,36,-1.40
2015,02,28,07,37,-1.40
2015,02,28,07,38,-1.50
2015,02,28,07,39,-1.50
2015,02,28,07,40,-1.50
2015,02,28,07,41,-1.50
2015,02,28,07,42,-1.50
2015,02,28,07,43,-1.60
2015,02,28,07,44,-1.60
2015,02,28,07,45,-1.50
2015,02,28,07,46,-1.50
2015,02,28,07,47,-1.50
2015,02,28,07,48,-1.50
2015,02,28,07,49,-1.50
2015,02,28,07,50,-1.50
2015,02,28,07,51,-1.40
2015,02,28,07,52,-1.40
2015,02,28,07,53,-1.40
2015,02,28,07,54,-1.30
2015,02,28,07,55,-1.30
2015,02,28,07,56,-1.30
2015,02,28,07,57,-1.30
2015,02,28,07,58,-1.20
2015,02,28,07,59,-1.20
2015,02,28,08,00,-1.20
2015,02,28,08,01,-1.10
2015,02,28,08,02,-1.10
2015,02,28,08,03,-1.10
2015,02,28,08,05,-1.10
2015,02,28,08,06,-1.00
2015,02,28,08,07,-1.00
2015,02,28,08,08,-1.00
2015,02,28,08,09,-0.90
2015,02,28,08,10,-0.90
2015,02,28,08,11,-0.90
2015,02,28,08,12,-0.90
2015,02,28,08,13,-0.90
2015,02,28,08,14,-0.80
2015,02,28,08,15,-0.80
2015,02,28,08,16,-0.80
2015,02,28,08,17,-0.70
2015,02,28,08,18,-0.70
2015,02,28,08,19,-0.70
2015,02,28,08,20,-0.70
2015,02,28,08,22,-0.60
2015,02,28,08,23,-0.60
2015,02,28,08,24,-0.60
2015,02,28,08,25,-0.50
2015,02,28,08,26,-0.50
2015,02,28,08,27,-0.40
2015,02,28,08,28,-0.40
2015,02,28,08,29,-0.40
2015,02,28,08,30,-0.30
2015,02,28,08,31,-0.30
2015,02,28,08,32,-0.30
2015,02,28,08,33,-0.30
2015,02,28,08,34,-0.20
2015,02,28,08,35,-0.20
2015,02,28,08,36,-0.20
2015,02,28,08,37,-0.10
2015,02,28,08,38,-0.10
2015,02,28,08,39,-0.10
2015,02,28,08,40,0.00
2015,02,28,08,41,0.10
2015,02,28,08,42,0.10
2015,02,28,08,43,0.10
2015,02,28,08,44,0.20
2015,02,28,08,45,0.20
2015,02,28,08,46,0.30
2015,02,28,08,47,0.40
2015,02,28,08,48,0.40
2015,02,28,08,49,0.50
2015,02,28,08,50,0.60
2015,02,28,08,51,0.70
2015,02,28,08,52,0.70
2015,02,28,08,53,0.80
2015,02,28,08,54,0.90
2015,02,28,08,55,0.90
2015,02,28,08,56,1.10
2015,02,28,08,57,1.10
2015,02,28,08,58,1.20
2015,02,28,08,59,1.20
2015,02,28,09,00,1.30
2015,02,28,09,01,1.30
2015,02,28,09,02,1.40
2015,02,28,09,03,1.50
2015,02,28,09,04,1.60
2015,02,28,09,05,1.70
2015,02,28,09,06,1.70
2015,02,28,09,07,1.80
2015,02,28,09,08,1.80
2015,02,28,09,09,1.90
2015,02,28,09,10,2.00
2015,02,28,09,11,2.10
2015,02,28,09,12,2.20
2015,02,28,09,13,2.20
2015,02,28,09,14,2.30
2015,02,28,09,15,2.40
2015,02,28,09,16,2.40
2015,02,28,09,17,2.60
2015,02,28,09,18,2.60
2015,02,28,09,19,2.70
2015,02,28,09,20,2.80
2015,02,28,09,21,2.80
2015,02,28,09,22,2.90
2015,02,28,09,23,2.90
2015,02,28,09,24,3.00
2015,02,28,09,25,3.00
2015,02,28,09,26,3.10
2015,02,28,09,27,3.10
2015,02,28,09,28,3.10
2015,02,28,09,29,3.20
2015,02,28,09,30,3.20
2015,02,28,09,31,3.30
2015,02,28,09,32,3.30
2015,02,28,09,33,3.30
2015,02,28,09,34,3.30
2015,02,28,09,35,3.30
2015,02,28,09,36,3.30
2015,02,28,09,37,3.30
2015,02,28,09,38,3.30
2015,02,28,09,39,3.30
2015,02,28,09,40,3.30
2015,02,28,09,41,3.30
2015,02,28,09,42,3.40
2015,02,28,09,43,3.40
2015,02,28,09,44,3.50
2015,02,28,09,45,3.60
2015,02,28,09,46,3.60
2015,02,28,09,47,3.70
2015,02,28,09,48,3.70
2015,02,28,09,49,3.80
2015,02,28,09,50,3.80
2015,02,28,09,51,3.90
2015,02,28,09,52,4.10
2015,02,28,09,53,4.20
2015,02,28,09,54,4.20
2015,02,28,09,55,4.30
2015,02,28,09,56,4.30
2015,02,28,09,57,4.40
2015,02,28,09,58,4.50
2015,02,28,09,59,4.60
2015,02,28,10,00,4.60
2015,02,28,10,01,4.70
2015,02,28,10,02,4.80
2015,02,28,10,03,4.90
2015,02,28,10,04,4.90
2015,02,28,10,05,5.10
2015,02,28,10,06,5.20
2015,02,28,10,07,5.20
2015,02,28,10,08,5.30
2015,02,28,10,09,5.40
2015,02,28,10,10,5.60
2015,02,28,10,11,5.60
2015,02,28,10,12,5.70
2015,02,28,10,13,5.80
2015,02,28,10,14,5.80
2015,02,28,10,15,5.80
2015,02,28,10,16,5.90
2015,02,28,10,17,5.90
2015,02,28,10,18,5.90
2015,02,28,10,19,5.90
2015,02,28,10,20,5.90
2015,02,28,10,21,5.90
2015,02,28,10,22,5.90
2015,02,28,10,23,5.90
2015,02,28,10,24,6.00
2015,02,28,10,25,6.00
2015,02,28,10,26,6.10
2015,02,28,10,27,6.10
2015,02,28,10,28,6.20
2015,02,28,10,29,6.30
2015,02,28,10,30,6.40
2015,02,28,10,31,6.40
2015,02,28,10,32,6.60
2015,02,28,10,33,6.70
2015,02,28,10,34,6.80
2015,02,28,10,35,6.80
2015,02,28,10,36,6.90
2015,02,28,10,37,7.10
2015,02,28,10,38,7.10
2015,02,28,10,39,7.20
2015,02,28,10,40,7.20
2015,02,28,10,41,7.20
2015,02,28,10,42,7.20
2015,02,28,10,43,7.20
2015,02,28,10,44,7.20
2015,02,28,10,45,7.20
2015,02,28,10,46,7.20
2015,02,28,10,47,7.20
2015,02,28,10,48,7.30
2015,02,28,10,49,7.30
2015,02,28,10,50,7.40
2015,02,28,10,51,7.40
2015,02,28,10,52,7.50
2015,02,28,10,53,7.50
2015,02,28,10,54,7.60
2015,02,28,10,55,7.60
2015,02,28,10,56,7.50
2015,02,28,10,57,7.50
2015,02,28,10,58,7.40
2015,02,28,10,59,7.40
2015,02,28,11,00,7.30
2015,02,28,11,01,7.30
2015,02,28,11,02,7.30
2015,02,28,11,03,7.30
2015,02,28,11,04,7.30
2015,02,28,11,05,7.30
2015,02,28,11,06,7.30
2015,02,28,11,07,7.40
2015,02,28,11,08,7.40
2015,02,28,11,09,7.40
2015,02,28,11,10,7.50
2015,02,28,11,11,7.60
2015,02,28,11,12,7.70
2015,02,28,11,13,7.70
2015,02,28,11,14,7.80
2015,02,28,11,15,7.80
2015,02,28,11,16,7.80
2015,02,28,11,17,7.90
2015,02,28,11,18,8.00
2015,02,28,11,19,8.10
2015,02,28,11,20,8.20
2015,02,28,11,21,8.20
2015,02,28,11,22,8.30
2015,02,28,11,23,8.40
2015,02,28,11,24,8.50
2015,02,28,11,25,8.60
2015,02,28,11,26,8.60
2015,02,28,11,27,8.70
2015,02,28,11,28,8.70
2015,02,28,11,29,8.80
2015,02,28,11,30,8.80
2015,02,28,11,31,8.80
2015,02,28,11,32,8.90
2015,02,28,11,33,8.90
2015,02,28,11,34,9.00
2015,02,28,11,35,9.10
2015,02,28,11,36,9.10
2015,02,28,11,37,9.20
2015,02,28,11,38,9.30
2015,02,28,11,39,9.30
2015,02,28,11,40,9.40
2015,02,28,11,41,9.50
2015,02,28,11,42,9.60
2015,02,28,11,43,9.60
2015,02,28,11,44,9.70
2015,02,28,11,45,9.70
2015,02,28,11,46,9.80
2015,02,28,11,47,9.80
2015,02,28,11,48,9.90
2015,02,28,11,49,9.90
2015,02,28,11,50,9.90
2015,02,28,11,51,10.00
2015,02,28,11,52,9.90
2015,02,28,11,53,9.90
2015,02,28,11,54,9.90
2015,02,28,11,55,9.90
2015,02,28,11,56,9.90
2015,02,28,11,57,9.80
2015,02,28,11,58,9.80
2015,02,28,11,59,9.80
2015,02,28,12,00,9.80
2015,02,28,12,01,9.80
2015,02,28,12,02,9.80
2015,02,28,12,03,9.80
2015,02,28,12,04,9.80
2015,02,28,12,05,9.80
2015,02,28,12,06,9.90
2015,02,28,12,07,9.90
2015,02,28,12,08,9.90
2015,02,28,12,09,9.80
2015,02,28,12,10,9.80
2015,02,28,12,11,9.80
2015,02,28,12,12,9.80
2015,02,28,12,13,9.80
2015,02,28,12,14,9.90
2015,02,28,12,15,10.00
2015,02,28,12,16,10.10
2015,02,28,12,17,10.10
2015,02,28,12,18,10.10
2015,02,28,12,19,10.20
2015,02,28,12,20,10.20
2015,02,28,12,21,10.20
2015,02,28,12,22,10.20
2015,02,28,12,23,10.30
2015,02,28,12,24,10.30
2015,02,28,12,25,10.40
2015,02,28,12,26,10.50
2015,02,28,12,27,10.60
2015,02,28,12,28,10.60
2015,02,28,12,29,10.60
2015,02,28,12,30,10.60
2015,02,28,12,31,10.60
2015,02,28,12,32,10.60
2015,02,28,12,33,10.60
2015,02,28,12,34,10.60
2015,02,28,12,35,10.60
2015,02,28,12,36,10.60
2015,02,28,12,37,10.50
2015,02,28,12,38,10.50
2015,02,28,12,39,10.60
2015,02,28,12,40,10.60
2015,02,28,12,41,10.60
2015,02,28,12,42,10.60
2015,02,28,12,43,10.60
2015,02,28,12,44,10.60
2015,02,28,12,45,10.70
2015,02,28,12,46,10.70
2015,02,28,12,47,10.70
2015,02,28,12,48,10.70
2015,02,28,12,49,10.70
2015,02,28,12,50,10.70
2015,02,28,12,51,10.70
2015,02,28,12,52,10.70
2015,02,28,12,53,10.80
2015,02,28,12,54,10.80
2015,02,28,12,55,10.80
2015,02,28,12,56,10.90
2015,02,28,12,57,10.90
2015,02,28,12,58,10.90
2015,02,28,12,59,11.00
2015,02,28,13,00,11.10
2015,02,28,13,01,11.20
2015,02,28,13,02,11.30
2015,02,28,13,03,11.30
2015,02,28,13,04,11.40
2015,02,28,13,05,11.50
2015,02,28,13,06,11.50
2015,02,28,13,07,11.50
2015,02,28,13,08,11.60
2015,02,28,13,09,11.70
2015,02,28,13,10,11.70
2015,02,28,13,11,11.80
2015,02,28,13,12,11.80
2015,02,28,13,13,11.90
2015,02,28,13,14,11.90
2015,02,28,13,15,12.00
2015,02,28,13,16,12.10
2015,02,28,13,17,12.10
2015,02,28,13,18,12.20
2015,02,28,13,19,12.20
2015,02,28,13,20,12.30
2015,02,28,13,21,12.30
2015,02,28,13,22,12.30
2015,02,28,13,23,12.40
2015,02,28,13,24,12.40
2015,02,28,13,25,12.50
2015,02,28,13,26,12.50
2015,02,28,13,27,12.60
2015,02,28,13,28,12.60
2015,02,28,13,29,12.60
2015,02,28,13,30,12.60
2015,02,28,13,31,12.60
2015,02,28,13,32,12.60
2015,02,28,13,33,12.70
2015,02,28,13,34,12.70
2015,02,28,13,35,12.80
2015,02,28,13,36,12.90
2015,02,28,13,37,12.90
2015,02,28,13,38,13.10
2015,02,28,13,39,13.10
2015,02,28,13,40,13.20
2015,02,28,13,41,13.30
2015,02,28,13,42,13.40
2015,02,28,13,43,13.50
2015,02,28,13,44,13.60
2015,02,28,13,45,13.60
2015,02,28,13,46,13.60
2015,02,28,13,48,13.60
2015,02,28,13,49,13.60
2015,02,28,13,50,13.60
2015,02,28,13,51,13.60
2015,02,28,13,52,13.60
2015,02,28,13,53,13.60
2015,02,28,13,54,13.70
2015,02,28,13,55,13.80
2015,02,28,13,56,13.80
2015,02,28,13,57,13.90
2015,02,28,13,58,13.80
2015,02,28,13,59,13.80
2015,02,28,14,00,13.80
2015,02,28,14,01,13.80
2015,02,28,14,02,13.70
2015,02,28,14,03,13.70
2015,02,28,14,04,13.80
2015,02,28,14,05,13.70
2015,02,28,14,06,13.70
2015,02,28,14,07,13.70
2015,02,28,14,09,13.70
2015,02,28,14,10,13.70
2015,02,28,14,11,13.70
2015,02,28,14,12,13.70
2015,02,28,14,13,13.80
2015,02,28,14,14,13.80
2015,02,28,14,15,13.80
2015,02,28,14,16,13.80
2015,02,28,14,17,13.80
2015,02,28,14,18,13.80
2015,02,28,14,19,13.80
2015,02,28,14,20,13.80
2015,02,28,14,21,13.80
2015,02,28,14,22,13.70
2015,02,28,14,23,13.70
2015,02,28,14,24,13.70
2015,02,28,14,25,13.70
2015,02,28,14,26,13.60
2015,02,28,14,27,13.60
2015,02,28,14,28,13.60
2015,02,28,14,29,13.60
2015,02,28,14,30,13.60
2015,02,28,14,31,13.60
2015,02,28,14,32,13.60
2015,02,28,14,33,13.70
2015,02,28,14,34,13.70
2015,02,28,14,35,13.60
2015,02,28,14,36,13.70
2015,02,28,14,37,13.70
2015,02,28,14,38,13.70
2015,02,28,14,39,13.70
2015,02,28,14,40,13.70
2015,02,28,14,41,13.70
2015,02,28,14,42,13.70
2015,02,28,14,43,13.70
2015,02,28,14,44,13.80
2015,02,28,14,45,13.80
2015,02,28,14,46,13.80
2015,02,28,14,47,13.80
2015,02,28,14,48,13.80
2015,02,28,14,49,13.70
2015,02,28,14,50,13.70
2015,02,28,14,51,13.70
2015,02,28,14,52,13.70
2015,02,28,14,53,13.70
2015,02,28,14,54,13.80
2015,02,28,14,55,13.80
2015,02,28,14,56,13.80
2015,02,28,14,57,13.80
2015,02,28,14,58,13.80
2015,02,28,14,59,13.80
2015,02,28,15,00,13.80
2015,02,28,15,01,13.80
2015,02,28,15,02,13.80
2015,02,28,15,03,13.80
2015,02,28,15,04,13.80
2015,02,28,15,05,13.80
2015,02,28,15,06,13.80
2015,02,28,15,07,13.80
2015,02,28,15,08,13.80
2015,02,28,15,09,13.80
2015,02,28,15,10,13.80
2015,02,28,15,11,13.80
2015,02,28,15,12,13.90
2015,02,28,15,13,13.90
2015,02,28,15,14,13.90
2015,02,28,15,15,13.90
2015,02,28,15,16,13.90
2015,02,28,15,17,13.90
2015,02,28,15,18,13.90
2015,02,28,15,19,13.90
2015,02,28,15,20,13.90
2015,02,28,15,21,13.90
2015,02,28,15,22,13.90
2015,02,28,15,23,13.90
2015,02,28,15,24,13.90
2015,02,28,15,25,13.90
2015,02,28,15,26,13.90
2015,02,28,15,27,13.80
2015,02,28,15,28,13.80
2015,02,28,15,29,13.80
2015,02,28,15,30,13.80
2015,02,28,15,31,13.80
2015,02,28,15,32,13.80
2015,02,28,15,33,13.80
2015,02,28,15,34,13.70
2015,02,28,15,35,13.70
2015,02,28,15,36,13.70
2015,02,28,15,37,13.70
2015,02,28,15,38,13.70
2015,02,28,15,39,13.70
2015,02,28,15,40,13.70
2015,02,28,15,41,13.70
2015,02,28,15,42,13.70
2015,02,28,15,43,13.70
2015,02,28,15,44,13.60
2015,02,28,15,45,13.60
2015,02,28,15,46,13.70
2015,02,28,15,47,13.70
2015,02,28,15,48,13.70
2015,02,28,15,49,13.70
2015,02,28,15,50,13.70
2015,02,28,15,51,13.60
2015,02,28,15,52,13.60
2015,02,28,15,53,13.60
2015,02,28,15,54,13.60
2015,02,28,15,55,13.60
2015,02,28,15,56,13.60
2015,02,28,15,57,13.60
2015,02,28,15,58,13.60
2015,02,28,15,59,13.60
2015,02,28,16,00,13.60
2015,02,28,16,01,13.50
2015,02,28,16,02,13.60
2015,02,28,16,03,13.60
2015,02,28,16,04,13.60
2015,02,28,16,05,13.50
2015,02,28,16,06,13.40
2015,02,28,16,07,13.40
2015,02,28,16,08,13.30
2015,02,28,16,09,13.30
2015,02,28,16,10,13.30
2015,02,28,16,11,13.30
2015,02,28,16,12,13.20
2015,02,28,16,13,13.20
2015,02,28,16,14,13.20
2015,02,28,16,15,13.20
2015,02,28,16,16,13.20
2015,02,28,16,17,13.10
2015,02,28,16,18,13.10
2015,02,28,16,19,13.00
2015,02,28,16,20,13.00
2015,02,28,16,21,12.90
2015,02,28,16,22,12.90
2015,02,28,16,23,13.00
2015,02,28,16,24,13.00
2015,02,28,16,25,13.00
2015,02,28,16,26,13.00
2015,02,28,16,27,13.00
2015,02,28,16,28,12.90
2015,02,28,16,29,12.90
2015,02,28,16,30,12.90
2015,02,28,16,31,12.90
2015,02,28,16,32,12.90
2015,02,28,16,33,12.90
2015,02,28,16,34,12.90
2015,02,28,16,35,12.90
2015,02,28,16,36,12.90
2015,02,28,16,37,12.80
2015,02,28,16,38,12.80
2015,02,28,16,40,12.80
2015,02,28,16,41,12.70
2015,02,28,16,42,12.70
2015,02,28,16,43,12.70
2015,02,28,16,44,12.70
2015,02,28,16,45,12.70
2015,02,28,16,46,12.70
2015,02,28,16,47,12.70
2015,02,28,16,48,12.70
2015,02,28,16,49,12.70
2015,02,28,16,50,12.60
2015,02,28,16,51,12.60
2015,02,28,16,52,12.60
2015,02,28,16,53,12.50
2015,02,28,16,54,12.40
2015,02,28,16,55,12.40
2015,02,28,16,56,12.40
2015,02,28,16,57,12.40
2015,02,28,16,58,12.40
2015,02,28,16,59,12.30
2015,02,28,17,00,12.30
2015,02,28,17,01,12.30
2015,02,28,17,02,12.30
2015,02,28,17,03,12.30
2015,02,28,17,04,12.30
2015,02,28,17,05,12.30
2015,02,28,17,06,12.20
2015,02,28,17,07,12.30
2015,02,28,17,08,12.30
2015,02,28,17,09,12.30
2015,02,28,17,10,12.30
2015,02,28,17,11,12.30
2015,02,28,17,12,12.30
2015,02,28,17,13,12.30
2015,02,28,17,14,12.30
2015,02,28,17,15,12.30
2015,02,28,17,16,12.30
2015,02,28,17,17,12.30
2015,02,28,17,18,12.30
2015,02,28,17,19,12.20
2015,02,28,17,20,12.20
2015,02,28,17,21,12.20
2015,02,28,17,22,12.20
2015,02,28,17,23,12.10
2015,02,28,17,24,12.10
2015,02,28,17,25,12.10
2015,02,28,17,26,12.00
2015,02,28,17,27,11.90
2015,02,28,17,28,11.90
2015,02,28,17,29,11.90
2015,02,28,17,30,11.80
2015,02,28,17,31,11.80
2015,02,28,17,32,11.80
2015,02,28,17,33,11.70
2015,02,28,17,34,11.70
2015,02,28,17,35,11.60
2015,02,28,17,36,11.60
2015,02,28,17,37,11.50
2015,02,28,17,38,11.40
2015,02,28,17,39,11.40
2015,02,28,17,40,11.30
2015,02,28,17,41,11.30
2015,02,28,17,42,11.20
2015,02,28,17,43,11.20
2015,02,28,17,44,11.10
2015,02,28,17,45,11.10
2015,02,28,17,46,11.00
2015,02,28,17,47,10.90
2015,02,28,17,48,10.80
2015,02,28,17,49,10.80
2015,02,28,17,50,10.70
2015,02,28,17,51,10.70
2015,02,28,17,52,10.60
2015,02,28,17,53,10.60
2015,02,28,17,54,10.50
2015,02,28,17,55,10.40
2015,02,28,17,56,10.40
2015,02,28,17,57,10.30
2015,02,28,17,58,10.30
2015,02,28,17,59,10.20